Regional Weather Roundup
Issued by NWS Cleveland, OH

Home | Current Version | Previous Version | Text Only | Print | Product List | Glossary Off
Versions: 1 2 3 4 5 6 7 8 9 10 11 12 13 14 15 16 17 18 19 20 21 22 23 24 25 26 27 28 29 30 31 32 33 34 35 36 37 38 39 40 41 42 43 44 45 46 47 48 49 50

000
ASUS41 KCLE 192010
RWRCLE
OHIO REGIONAL WEATHER ROUNDUP
NATIONAL WEATHER SERVICE WILMINGTON, OH
300 PM EST SUN FEB 19 2017

NOTE: "FAIR" INDICATES FEW OR NO CLOUDS BELOW 12,000 FEET WITH NO
SIGNIFICANT WEATHER AND/OR OBSTRUCTIONS TO VISIBILITY.

OHZ001>008-015>018-024>027-034-035-043-044-192100-
   NORTHWEST OHIO

CITY           SKY/WX    TMP DP  RH WIND       PRES   REMARKS
DEFIANCE       FAIR      63  35  35 NW9       30.04S
FINDLAY        FAIR      65  34  31 NW12      30.03S
TOLEDO EXPRESS FAIR      63  32  31 W12       30.02S
TOLEDO EXEC    FAIR      64  35  34 SW10      30.02S
LIMA           FAIR      63  38  39 NW13      30.04S
$$

OHZ009>014-019>023-028>033-038-089-192100-
   NORTHEAST OHIO

CITY           SKY/WX    TMP DP  RH WIND       PRES   REMARKS
CLE-HOPKINS    FAIR      63  31  30 W15G23    30.03R
CLE-LAKEFRONT  FAIR      47  37  68 W7        30.01R
CUY CO. ARPT   SUNNY     57  39  51 NW20      30.01S
LORAIN-ELYRIA  FAIR      61  34  36 W12       30.01S
ASHTABULA      FAIR      58  33  39 W16G23    30.00R
AKRON-CANTON   FAIR      63  35  35 NW10      30.00S
WOOSTER        FAIR      61  36  39 W12       30.01S
MANSFIELD      FAIR      62  36  37 W8G21     30.03R
YOUNGSTOWN     FAIR      62  32  32 W12       29.98R
$$

OHZ042-051>053-060>062-070>072-077>081-192100-
  SOUTHWEST OHIO

CITY           SKY/WX    TMP DP  RH WIND       PRES   REMARKS
CINC-COVINGTON FAIR      58  47  66 SW9       30.09S
CINC-LUNKEN    FAIR      58  48  69 SW7       30.10S
HAMILTON       FAIR      58  47  66 W7        30.10S
DAYTON         FAIR      57  45  64 SW5       30.08S
WRIGHT-PAT AFB FAIR      56  47  71 SW7       30.07F
DAYTON GENERAL CLOUDY    51  45  79 SW6       30.08S
WILMINGTON     FAIR      53  46  77 W7        30.08S
$$

OHZ036-037-039>041-045>050-054>059-063>069-073>076-082>088-192100-
  CENTRAL AND SOUTHEAST OHIO

CITY           SKY/WX    TMP DP  RH WIND       PRES   REMARKS
COLUMBUS       FAIR      55  45  68 SW12      30.07R
OSU AIRPORT    FAIR      58  46  64 S10       30.05S
BOLTON FIELD   PTSUNNY   54  46  76 SW10      30.07S
RICKENBACK AFB CLOUDY    51  46  83 SW10      30.08R
NEWARK         FAIR      54  45  71 SW9       30.05S
MARION         FAIR      63  37  38 W12       30.04R
LANCASTER      CLOUDY    52  45  77 W7        30.08S
ZANESVILLE     FAIR      56  44  64 W9        30.05S
NEW PHILLY     FAIR      64  39  39 W7        30.01S
$$



USA.gov is the U.S. government's official web portal to all federal, state and local government web resources and services.